This is the latest recevied weather packets stored in our database for station/object SR9WXP. If no packets are shown the sender has not sent any weather packets the latest 1 day(s).
| Time | Temp. | Humidity | Pressure | Rain* | Wind** | Luminosity | Snow |
|---|---|---|---|---|---|---|---|
| 1777999242 | 13.33° C | 47% | 851 hPa | - | 4.92 m/s, 182° | - | - |
| 1777999182 | 13.33° C | 47% | 851.1 hPa | - | 4.92 m/s, 185° | - | - |
| 1777999063 | 13.89° C | 47% | 851.1 hPa | - | 4.47 m/s, 193° | - | - |
| 1777998938 | 13.89° C | 47% | 851.1 hPa | - | 4.92 m/s, 184° | - | - |
| 1777998819 | 13.89° C | 47% | 851.1 hPa | - | 4.92 m/s, 185° | - | - |
| 1777998700 | 13.89° C | 47% | 851.1 hPa | - | 4.47 m/s, 189° | - | - |
| 1777998692 | 13.89° C | 47% | 851.1 hPa | - | 4.02 m/s, 188° | - | - |
| 1777998638 | 13.89° C | 47% | 851.1 hPa | - | 4.02 m/s, 188° | - | - |
| 1777998580 | 14.44° C | 47% | 851.2 hPa | - | 4.02 m/s, 185° | - | - |
| 1777998460 | 14.44° C | 47% | 851.1 hPa | - | 5.36 m/s, 188° | - | - |
| 1777998335 | 14.44° C | 46% | 851.1 hPa | - | 5.36 m/s, 190° | - | - |
| 1777998217 | 14.44° C | 46% | 851.2 hPa | - | 4.47 m/s, 191° | - | - |
| 1777998096 | 15° C | 46% | 851.1 hPa | - | 4.47 m/s, 186° | - | - |
| 1777998035 | 15° C | 46% | 851.1 hPa | - | 3.58 m/s, 183° | - | - |
| 1777997975 | 15° C | 46% | 851.1 hPa | - | 3.13 m/s, 185° | - | - |
| 1777997855 | 15° C | 46% | 851.1 hPa | - | 4.02 m/s, 183° | - | - |
| 1777997732 | 15° C | 46% | 851.1 hPa | - | 4.02 m/s, 183° | - | - |
| 1777997613 | 15° C | 46% | 851.2 hPa | - | 3.58 m/s, 182° | - | - |
| 1777997494 | 15° C | 47% | 851.2 hPa | - | 3.13 m/s, 191° | - | - |
| 1777997432 | 15° C | 47% | 851.2 hPa | - | 4.02 m/s, 195° | - | - |
| 1777997373 | 15° C | 46% | 851.3 hPa | - | 4.02 m/s, 199° | - | - |
| 1777997253 | 15° C | 46% | 851.3 hPa | - | 3.13 m/s, 190° | - | - |
| 1777997129 | 15° C | 47% | 851.3 hPa | - | 4.02 m/s, 185° | - | - |
| 1777997010 | 15° C | 47% | 851.3 hPa | - | 3.58 m/s, 182° | - | - |
| 1777996890 | 15° C | 47% | 851.3 hPa | - | 3.58 m/s, 181° | - | - |
* Rain since midnight (hover to see other rain measurements)
** Current wind speed in m/s (hover to see current wind gust speed)